Location: Namasale
(1.5000°N, 32.6167°E)
Time: 18:05:03
(UTC+00:00)

Courier 1B - Pass Details

Date: 28 April 2021
Orbit: 962 x 1209 km, 28.3° (Epoch: 18 May)

Event Time Altitude Azimuth Distance (km) Brightness Sun altitude
Rises 00:42:04 0° 215° (SW) 4,066 - -43.9°
Reaches altitude 10° 00:45:51 10° 198° (SSW) 3,126 - -43.1°
Maximum altitude 00:51:13 20° 154° (SSE) 2,485 - -41.8°
Exits shadow 00:52:51 19° 139° (SE) 2,554 9.8 -41.4°
Drops below altitude 10° 00:56:35 10° 111° (ESE) 3,138 10.6 -40.5°
Sets 01:00:22 0° 94° (E) 4,086 11.5 -39.7°
